This is the latest recevied weather packets stored in our database for station/object K1BWE-1. If no packets are shown the sender has not sent any weather packets the latest 10 day(s).
| Time | Temp. | Humidity | Pressure | Rain* | Wind** | Luminosity | Snow |
|---|---|---|---|---|---|---|---|
| 1778020508 | 21.67° C | 34% | 1011.6 hPa | 0 mm | - | 651 W/m² | - |
| 1778020204 | 21.67° C | 34% | 1011.8 hPa | 0 mm | - | 642 W/m² | - |
| 1778019901 | 21.67° C | 35% | 1011.8 hPa | 0 mm | - | 441 W/m² | - |
| 1778019596 | 22.78° C | 35% | 1011.9 hPa | 0 mm | - | 564 W/m² | - |
| 1778019294 | 21.67° C | 36% | 1011.8 hPa | 0 mm | - | 694 W/m² | - |
| 1778018991 | 22.22° C | 34% | 1011.8 hPa | 0 mm | - | 199 W/m² | - |
| 1778018688 | 21.11° C | 37% | 1012 hPa | 0 mm | - | 291 W/m² | - |
| 1778018385 | 22.78° C | 36% | 1012 hPa | 0 mm | - | 666 W/m² | - |
| 1778018083 | 23.33° C | 35% | 1012.4 hPa | 0 mm | - | 661 W/m² | - |
| 1778017781 | 22.78° C | 35% | 1012.1 hPa | 0 mm | - | 622 W/m² | - |
| 1778017478 | 22.22° C | 37% | 1012.2 hPa | 0 mm | - | 746 W/m² | - |
| 1778017176 | 22.78° C | 36% | 1012.7 hPa | 0 mm | - | 751 W/m² | - |
| 1778016873 | 21.67° C | 39% | 1012.2 hPa | 0 mm | - | 742 W/m² | - |
| 1778016569 | 21.67° C | 41% | 1012.2 hPa | 0 mm | - | 815 W/m² | - |
| 1778016266 | 21.11° C | 44% | 1012.4 hPa | 0 mm | - | 332 W/m² | - |
| 1778015962 | 20.56° C | 45% | 1012.1 hPa | 0 mm | - | 759 W/m² | - |
| 1778015660 | 21.11° C | 45% | 1012.8 hPa | 0 mm | - | 357 W/m² | - |
| 1778015356 | 21.11° C | 46% | 1012.5 hPa | 0 mm | - | 811 W/m² | - |
| 1778015054 | 20° C | 49% | 1012.7 hPa | 0 mm | - | 150 W/m² | - |
| 1778014750 | 20.56° C | 49% | 1012.8 hPa | 0 mm | - | 145 W/m² | - |
| 1778014449 | 20° C | 52% | 1012.8 hPa | 0 mm | - | 804 W/m² | - |
| 1778014145 | 20° C | 51% | 1012.9 hPa | 0 mm | - | 153 W/m² | - |
| 1778013843 | 20.56° C | 51% | 1012.8 hPa | 0 mm | - | 150 W/m² | - |
| 1778013540 | 21.67° C | 48% | 1012.7 hPa | 0 mm | - | 189 W/m² | - |
| 1778013236 | 21.11° C | 49% | 1012.8 hPa | 0 mm | - | 853 W/m² | - |
* Rain latest hour (hover to see other rain measurements)
** Current wind speed in m/s (hover to see current wind gust speed)